COSMOS 397 DEB, 5010

Orbit data source: Space-Track

COSMOS 397 DEB, 5010 is space debris in LEO originally from a launch on Thu, 25 Feb 1971 UTC launched from the Tyuratam Missile And Space Complex (TTMTR). Debris objects in space refer to the collection of defunct objects orbiting the Earth. Examples of debris include non-operational satellites, rocket bodies, and fragments generated from explosions, collisions, or faulty payload assembly.

Loading next visibility...
Identifier
5010, 1971-015D
Orbit
LEO
Country
Flag of CISCIS
Related business
Manufacturer
Unknown
Mission
Spacecraft
Bus & Motor
Unknown
Mass
Unknown
Launch date (UTC)
1971-02-25 (55 years ago)
Launch vehicle
Unknown
Launch site
Tyuratam Missile And Space Complex (TTMTR)
Object type
Payload
Rocket body
Debris
Shape & HBR
Unknown shape, 0.1 m
Radar Cross Section
Small (<0.1 m²)

Expand to show TLE details & history
Last TLE update: 16 hours ago

TLE from 16 hours ago
0 COSMOS 397 DEB
1 05010U 71015D   25349.50358116  .00001868  00000-0  55094-3 0  9991
2 05010  65.8384  70.3796 0617016 355.5470   4.0243 13.71026789623664
Epoch: 2025-12-15T12:05Z
TLE epoch observation values (Epoch: 2025-12-15T12:05:09.412Z)
Latitude
0.00003°
Longitude
164.68919°
Altitude
544.119 km
Speed
7.82 km/s
True Right ascension
04h 41m 31s
True Declination
0° 00' 00"
Sunlit
Object was in full shadow at epoch
Visualization orbit readout
Latitude
Unknown
Longitude
Unknown
Altitude
Unknown
Speed
Unknown
Apparent Right ascension
Unknown
Apparent Declination
Unknown
Sunlit
N/A
Visualization observer readout
Local Sidereal Time
03:06:49
Azimuth
Unknown
Elevation
Unknown
Doppler factor
Unknown
Orbital elements
Apogee altitude
1,449.295 km
Perigee altitude
539.501 km
Semi-major axis
7,372.535 km
Eccentricity
0.0617
Inclination
65.8384°
RAAN
70.3796°
Arg. of periapsis
355.547°
True anomaly
4.5617°
Mean anomaly
4.0243°
Eccentric anomaly
4.28867°
Mean motion
3.42861 °/min
Orbital period
105 mins
BSTAR
0.00055094
Loading maneuver chart data...
Computing Atmospheric mass density...

Documentation

Showing up to 5 results
|